Time,TemperatureF,DewpointF,PressureIn,WindDirection,WindDirectionDegrees,WindSpeedMPH,WindSpeedGustMPH,Humidity,HourlyPrecipIn,Conditions,Clouds,dailyrainin,SoftwareType,DateUTC
2013-02-01 00:00:00,22.7,16.3,28.89,NNW,330,10.0,10.0,76,0.00,,,0.00,Wunderground v.1.15,2013-02-01 05:00:00,
2013-02-01 00:04:00,22.7,16.3,28.89,North,9,11.0,11.0,76,0.00,,,0.00,Wunderground v.1.15,2013-02-01 05:04:00,
2013-02-01 00:09:00,22.6,16.2,28.89,North,360,11.0,16.0,76,0.00,,,0.00,Wunderground v.1.15,2013-02-01 05:09:00,
2013-02-01 00:14:00,22.6,16.2,28.90,North,355,10.0,16.0,76,0.00,,,0.00,Wunderground v.1.15,2013-02-01 05:14:00,
2013-02-01 00:19:00,22.6,16.2,28.90,NW,306,9.0,9.0,76,0.00,,,0.00,Wunderground v.1.15,2013-02-01 05:19:00,
2013-02-01 00:24:00,22.5,16.4,28.90,NW,325,8.0,9.0,77,0.00,,,0.00,Wunderground v.1.15,2013-02-01 05:24:00,
2013-02-01 00:29:00,22.5,16.4,28.90,North,355,8.0,12.0,77,0.00,,,0.00,Wunderground v.1.15,2013-02-01 05:29:00,
2013-02-01 00:35:00,22.4,16.3,28.90,North,355,9.0,12.0,77,0.00,,,0.00,Wunderground v.1.15,2013-02-01 05:35:00,
2013-02-01 00:40:00,22.4,16.6,28.90,WNW,288,8.0,8.0,78,0.00,,,0.00,Wunderground v.1.15,2013-02-01 05:40:00,
2013-02-01 00:45:00,22.4,16.6,28.90,NNW,343,8.0,8.0,78,0.00,,,0.00,Wunderground v.1.15,2013-02-01 05:45:00,
2013-02-01 00:50:00,22.4,16.6,28.91,WNW,298,7.0,8.0,78,0.00,,,0.00,Wunderground v.1.15,2013-02-01 05:50:00,
2013-02-01 00:55:00,22.4,16.6,28.90,NNW,342,7.0,8.0,78,0.00,,,0.00,Wunderground v.1.15,2013-02-01 05:55:00,
2013-02-01 01:04:00,22.3,16.5,28.91,NW,304,8.0,23.0,78,0.00,,,0.00,Wunderground v.1.15,2013-02-01 06:04:00,
2013-02-01 01:09:00,22.3,16.2,28.91,NNW,348,7.0,7.0,77,0.00,,,0.00,Wunderground v.1.15,2013-02-01 06:09:00,
2013-02-01 01:15:00,22.2,16.1,28.91,North,360,8.0,12.0,77,0.00,,,0.00,Wunderground v.1.15,2013-02-01 06:15:00,
2013-02-01 01:24:00,22.1,16.3,28.91,NNW,336,8.0,23.0,78,0.00,,,0.00,Wunderground v.1.15,2013-02-01 06:24:00,
2013-02-01 01:29:00,22.0,16.5,28.91,NNW,346,8.0,23.0,79,0.00,,,0.00,Wunderground v.1.15,2013-02-01 06:29:00,
2013-02-01 01:34:00,22.0,16.2,28.91,North,10,9.0,23.0,78,0.00,,,0.00,Wunderground v.1.15,2013-02-01 06:34:00,
2013-02-01 01:39:00,22.0,16.2,28.92,NNW,333,9.0,9.0,78,0.00,,,0.00,Wunderground v.1.15,2013-02-01 06:39:00,
2013-02-01 01:45:00,22.1,16.6,28.92,WSW,257,9.0,23.0,79,0.00,,,0.00,Wunderground v.1.15,2013-02-01 06:45:00,
2013-02-01 01:49:00,22.0,17.1,28.92,NNE,13,9.0,23.0,81,0.00,,,0.00,Wunderground v.1.15,2013-02-01 06:49:00,
2013-02-01 01:54:00,21.7,17.1,28.92,NNE,20,11.0,23.0,82,0.00,,,0.00,Wunderground v.1.15,2013-02-01 06:54:00,
2013-02-01 02:00:00,21.4,17.3,28.92,NNW,346,11.0,23.0,84,0.00,,,0.00,Wunderground v.1.15,2013-02-01 07:00:00,
2013-02-01 02:05:00,21.2,17.4,28.92,NNE,27,10.0,23.0,85,0.00,,,0.00,Wunderground v.1.15,2013-02-01 07:05:00,
2013-02-01 02:14:00,21.0,17.5,28.92,North,355,7.0,11.0,86,0.00,,,0.00,Wunderground v.1.15,2013-02-01 07:14:00,
2013-02-01 02:19:00,20.9,17.6,28.93,NNW,334,9.0,9.0,87,0.00,,,0.00,Wunderground v.1.15,2013-02-01 07:19:00,
2013-02-01 02:24:00,20.8,17.5,28.93,North,5,9.0,10.0,87,0.00,,,0.00,Wunderground v.1.15,2013-02-01 07:24:00,
2013-02-01 02:29:00,20.8,17.8,28.93,NW,326,8.0,8.0,88,0.00,,,0.00,Wunderground v.1.15,2013-02-01 07:29:00,
2013-02-01 02:34:00,20.8,17.8,28.93,North,349,8.0,23.0,88,0.00,,,0.00,Wunderground v.1.15,2013-02-01 07:34:00,
2013-02-01 02:44:00,20.6,17.6,28.93,NNW,343,7.0,23.0,88,0.00,,,0.00,Wunderground v.1.15,2013-02-01 07:44:00,
2013-02-01 02:49:00,20.4,17.4,28.93,NNW,338,7.0,23.0,88,0.00,,,0.00,Wunderground v.1.15,2013-02-01 07:49:00,
2013-02-01 02:54:00,20.2,17.2,28.93,North,355,6.0,23.0,88,0.00,,,0.00,Wunderground v.1.15,2013-02-01 07:54:00,
2013-02-01 02:59:00,20.2,17.2,28.93,NNW,348,8.0,23.0,88,0.00,,,0.00,Wunderground v.1.15,2013-02-01 07:59:00,
2013-02-01 03:04:00,20.2,17.2,28.93,NNW,331,8.0,23.0,88,0.00,,,0.00,Wunderground v.1.15,2013-02-01 08:04:00,
2013-02-01 03:09:00,20.2,17.2,28.93,NNW,333,8.0,23.0,88,0.00,,,0.00,Wunderground v.1.15,2013-02-01 08:09:00,
2013-02-01 03:19:00,20.0,17.0,28.93,WNW,289,7.0,23.0,88,0.00,,,0.00,Wunderground v.1.15,2013-02-01 08:19:00,
2013-02-01 03:24:00,19.9,16.9,28.93,NNW,347,6.0,23.0,88,0.00,,,0.00,Wunderground v.1.15,2013-02-01 08:24:00,
2013-02-01 03:29:00,20.0,17.0,28.93,NNW,334,6.0,23.0,88,0.00,,,0.00,Wunderground v.1.15,2013-02-01 08:29:00,
2013-02-01 03:34:00,20.0,17.0,28.93,North,5,7.0,23.0,88,0.00,,,0.00,Wunderground v.1.15,2013-02-01 08:34:00,
2013-02-01 03:39:00,20.1,17.1,28.94,NW,319,8.0,8.0,88,0.00,,,0.00,Wunderground v.1.15,2013-02-01 08:39:00,
2013-02-01 03:49:00,19.9,17.2,28.94,WNW,298,8.0,8.0,89,0.00,,,0.00,Wunderground v.1.15,2013-02-01 08:49:00,
2013-02-01 03:54:00,19.9,17.4,28.94,WNW,294,7.0,23.0,90,0.00,,,0.00,Wunderground v.1.15,2013-02-01 08:54:00,
2013-02-01 03:59:00,19.8,17.3,28.94,North,350,7.0,23.0,90,0.00,,,0.00,Wunderground v.1.15,2013-02-01 08:59:00,
2013-02-01 04:04:00,19.9,17.4,28.94,NW,319,7.0,23.0,90,0.00,,,0.00,Wunderground v.1.15,2013-02-01 09:04:00,
2013-02-01 04:09:00,19.9,17.4,28.94,NNW,329,6.0,6.0,90,0.00,,,0.00,Wunderground v.1.15,2013-02-01 09:09:00,
2013-02-01 04:14:00,19.8,17.6,28.95,NNW,338,6.0,23.0,91,0.00,,,0.00,Wunderground v.1.15,2013-02-01 09:14:00,
2013-02-01 04:24:00,19.8,17.6,28.95,NW,318,6.0,9.0,91,0.00,,,0.00,Wunderground v.1.15,2013-02-01 09:24:00,
2013-02-01 04:29:00,19.7,17.5,28.95,NNW,336,7.0,23.0,91,0.00,,,0.00,Wunderground v.1.15,2013-02-01 09:29:00,
2013-02-01 04:34:00,19.7,17.5,28.96,NNW,340,8.0,23.0,91,0.00,,,0.00,Wunderground v.1.15,2013-02-01 09:34:00,
2013-02-01 04:39:00,19.7,17.8,28.96,NNW,344,8.0,8.0,92,0.00,,,0.00,Wunderground v.1.15,2013-02-01 09:39:00,
2013-02-01 04:44:00,19.6,17.7,28.96,North,355,7.0,23.0,92,0.00,,,0.00,Wunderground v.1.15,2013-02-01 09:44:00,
2013-02-01 04:54:00,19.5,17.6,28.97,NNW,339,7.0,8.0,92,0.00,,,0.00,Wunderground v.1.15,2013-02-01 09:54:00,
2013-02-01 04:59:00,19.5,17.6,28.97,North,349,7.0,7.0,92,0.00,,,0.00,Wunderground v.1.15,2013-02-01 09:59:00,
2013-02-01 05:04:00,19.5,17.6,28.97,NNW,336,7.0,23.0,92,0.00,,,0.00,Wunderground v.1.15,2013-02-01 10:04:00,
2013-02-01 05:09:00,19.5,17.6,28.97,NNW,329,6.0,6.0,92,0.00,,,0.00,Wunderground v.1.15,2013-02-01 10:09:00,
2013-02-01 05:14:00,19.5,17.6,28.97,NNW,327,6.0,23.0,92,0.00,,,0.00,Wunderground v.1.15,2013-02-01 10:14:00,
2013-02-01 05:19:00,19.5,17.6,28.98,North,355,7.0,7.0,92,0.00,,,0.00,Wunderground v.1.15,2013-02-01 10:19:00,
2013-02-01 05:29:00,19.4,17.5,28.98,NNE,26,7.0,23.0,92,0.00,,,0.00,Wunderground v.1.15,2013-02-01 10:29:00,
2013-02-01 05:34:00,19.4,17.7,28.98,WNW,298,7.0,23.0,93,0.00,,,0.00,Wunderground v.1.15,2013-02-01 10:34:00,
2013-02-01 05:39:00,19.3,17.6,28.99,North,351,7.0,23.0,93,0.00,,,0.00,Wunderground v.1.15,2013-02-01 10:39:00,
2013-02-01 05:44:00,19.3,17.6,28.99,North,10,7.0,23.0,93,0.00,,,0.00,Wunderground v.1.15,2013-02-01 10:44:00,
2013-02-01 05:49:00,19.3,17.6,28.99,NNW,327,7.0,23.0,93,0.00,,,0.00,Wunderground v.1.15,2013-02-01 10:49:00,
2013-02-01 05:54:00,19.2,17.5,29.00,NNW,346,7.0,23.0,93,0.00,,,0.00,Wunderground v.1.15,2013-02-01 10:54:00,
2013-02-01 05:59:00,19.2,17.5,29.00,NNW,346,7.0,7.0,93,0.00,,,0.00,Wunderground v.1.15,2013-02-01 10:59:00,
2013-02-01 06:04:00,19.2,17.5,29.00,North,349,7.0,8.0,93,0.00,,,0.00,Wunderground v.1.15,2013-02-01 11:04:00,
2013-02-01 06:09:00,19.2,17.5,29.00,NNW,335,7.0,7.0,93,0.00,,,0.00,Wunderground v.1.15,2013-02-01 11:09:00,
2013-02-01 06:14:00,19.2,17.5,29.01,North,355,7.0,23.0,93,0.00,,,0.00,Wunderground v.1.15,2013-02-01 11:14:00,
2013-02-01 06:19:00,19.3,17.6,29.01,North,350,6.0,23.0,93,0.00,,,0.00,Wunderground v.1.15,2013-02-01 11:19:00,
2013-02-01 06:29:00,19.4,17.7,29.02,North,350,7.0,23.0,93,0.00,,,0.00,Wunderground v.1.15,2013-02-01 11:29:00,
2013-02-01 06:34:00,19.4,17.7,29.02,NNW,327,7.0,23.0,93,0.00,,,0.00,Wunderground v.1.15,2013-02-01 11:34:00,
2013-02-01 06:39:00,19.4,17.7,29.02,NNW,340,8.0,8.0,93,0.00,,,0.00,Wunderground v.1.15,2013-02-01 11:39:00,
2013-02-01 06:44:00,19.3,17.6,29.03,North,355,8.0,23.0,93,0.00,,,0.00,Wunderground v.1.15,2013-02-01 11:44:00,
2013-02-01 06:49:00,19.2,17.5,29.03,North,350,7.0,23.0,93,0.00,,,0.00,Wunderground v.1.15,2013-02-01 11:49:00,
2013-02-01 06:54:00,19.1,17.4,29.03,North,360,8.0,23.0,93,0.00,,,0.00,Wunderground v.1.15,2013-02-01 11:54:00,
2013-02-01 07:04:00,19.1,17.4,29.04,North,350,6.0,23.0,93,0.00,,,0.00,Wunderground v.1.15,2013-02-01 12:04:00,
2013-02-01 07:09:00,19.1,17.4,29.05,North,355,6.0,23.0,93,0.00,,,0.00,Wunderground v.1.15,2013-02-01 12:09:00,
2013-02-01 07:14:00,19.1,17.4,29.05,North,350,7.0,23.0,93,0.00,,,0.00,Wunderground v.1.15,2013-02-01 12:14:00,
2013-02-01 07:19:00,19.1,17.4,29.06,North,11,7.0,23.0,93,0.00,,,0.00,Wunderground v.1.15,2013-02-01 12:19:00,
2013-02-01 07:24:00,19.1,17.4,29.06,NNE,18,7.0,23.0,93,0.00,,,0.00,Wunderground v.1.15,2013-02-01 12:24:00,
2013-02-01 07:34:00,19.0,17.3,29.07,North,355,7.0,23.0,93,0.00,,,0.00,Wunderground v.1.15,2013-02-01 12:34:00,
2013-02-01 07:39:00,19.0,17.3,29.07,North,360,8.0,8.0,93,0.00,,,0.00,Wunderground v.1.15,2013-02-01 12:39:00,
2013-02-01 07:44:00,18.9,17.2,29.08,NNE,22,9.0,9.0,93,0.00,,,0.00,Wunderground v.1.15,2013-02-01 12:44:00,
2013-02-01 07:49:00,18.8,17.1,29.08,NNE,17,8.0,8.0,93,0.00,,,0.00,Wunderground v.1.15,2013-02-01 12:49:00,
2013-02-01 07:54:00,18.8,17.1,29.09,NNE,21,7.0,23.0,93,0.00,,,0.00,Wunderground v.1.15,2013-02-01 12:54:00,
2013-02-01 07:59:00,18.8,17.1,29.09,NE,37,6.0,23.0,93,0.00,,,0.00,Wunderground v.1.15,2013-02-01 12:59:00,
2013-02-01 08:09:00,18.9,17.2,29.10,NNE,25,7.0,23.0,93,0.00,,,0.00,Wunderground v.1.15,2013-02-01 13:09:00,
2013-02-01 08:14:00,18.8,17.1,29.10,NNE,17,9.0,23.0,93,0.00,,,0.00,Wunderground v.1.15,2013-02-01 13:14:00,
2013-02-01 08:19:00,18.6,16.9,29.11,NNE,17,10.0,23.0,93,0.00,,,0.00,Wunderground v.1.15,2013-02-01 13:19:00,
2013-02-01 08:24:00,18.6,16.9,29.11,NNE,30,10.0,23.0,93,0.00,,,0.00,Wunderground v.1.15,2013-02-01 13:24:00,
2013-02-01 08:29:00,18.6,16.9,29.11,NNE,19,9.0,23.0,93,0.00,,,0.00,Wunderground v.1.15,2013-02-01 13:29:00,
2013-02-01 08:39:00,18.6,16.9,29.12,NNE,29,8.0,8.0,93,0.00,,,0.00,Wunderground v.1.15,2013-02-01 13:39:00,
2013-02-01 08:44:00,18.6,16.9,29.13,NNE,31,8.0,23.0,93,0.00,,,0.00,Wunderground v.1.15,2013-02-01 13:44:00,
2013-02-01 08:49:00,18.7,17.0,29.13,NE,42,7.0,7.0,93,0.00,,,0.00,Wunderground v.1.15,2013-02-01 13:49:00,
2013-02-01 08:54:00,18.8,17.1,29.13,NE,50,6.0,11.0,93,0.00,,,0.00,Wunderground v.1.15,2013-02-01 13:54:00,
2013-02-01 08:59:00,18.7,17.0,29.14,NNE,32,7.0,7.0,93,0.00,,,0.00,Wunderground v.1.15,2013-02-01 13:59:00,
2013-02-01 09:04:00,18.7,17.0,29.14,NNE,31,8.0,9.0,93,0.00,,,0.00,Wunderground v.1.15,2013-02-01 14:04:00,
2013-02-01 09:14:00,18.8,17.1,29.14,NE,36,5.0,23.0,93,0.00,,,0.00,Wunderground v.1.15,2013-02-01 14:14:00,
2013-02-01 09:19:00,18.9,17.2,29.15,NNE,32,5.0,23.0,93,0.00,,,0.00,Wunderground v.1.15,2013-02-01 14:19:00,
2013-02-01 09:24:00,18.9,17.2,29.15,NE,44,7.0,23.0,93,0.00,,,0.00,Wunderground v.1.15,2013-02-01 14:24:00,
2013-02-01 09:29:00,18.8,17.1,29.15,NE,40,8.0,23.0,93,0.00,,,0.00,Wunderground v.1.15,2013-02-01 14:29:00,
2013-02-01 09:34:00,18.8,17.1,29.16,NE,34,9.0,23.0,93,0.00,,,0.00,Wunderground v.1.15,2013-02-01 14:34:00,
2013-02-01 09:44:00,18.9,17.2,29.16,NNE,22,7.0,23.0,93,0.00,,,0.00,Wunderground v.1.15,2013-02-01 14:44:00,
2013-02-01 09:49:00,19.0,17.3,29.16,NNE,28,7.0,23.0,93,0.00,,,0.00,Wunderground v.1.15,2013-02-01 14:49:00,
2013-02-01 09:54:00,19.2,17.5,29.17,NNE,22,8.0,23.0,93,0.00,,,0.00,Wunderground v.1.15,2013-02-01 14:54:00,
2013-02-01 09:59:00,19.4,18.0,29.17,NNE,24,8.0,23.0,94,0.00,,,0.00,Wunderground v.1.15,2013-02-01 14:59:00,
2013-02-01 10:04:00,19.6,18.2,29.17,NNE,24,8.0,23.0,94,0.00,,,0.00,Wunderground v.1.15,2013-02-01 15:04:00,
2013-02-01 10:09:00,19.8,18.4,29.17,NE,36,7.0,7.0,94,0.00,,,0.00,Wunderground v.1.15,2013-02-01 15:09:00,
2013-02-01 10:14:00,20.1,18.7,29.17,NNE,31,7.0,23.0,94,0.00,,,0.00,Wunderground v.1.15,2013-02-01 15:14:00,
2013-02-01 10:19:00,20.3,18.8,29.17,NNE,24,6.0,23.0,94,0.00,,,0.00,Wunderground v.1.15,2013-02-01 15:19:00,
2013-02-01 10:24:00,20.5,19.0,29.17,NNE,26,5.0,23.0,94,0.00,,,0.00,Wunderground v.1.15,2013-02-01 15:24:00,
2013-02-01 10:29:00,20.7,19.2,29.18,NNE,26,5.0,23.0,94,0.00,,,0.00,Wunderground v.1.15,2013-02-01 15:29:00,
2013-02-01 10:34:00,20.9,19.4,29.18,North,5,5.0,23.0,94,0.00,,,0.00,Wunderground v.1.15,2013-02-01 15:34:00,
2013-02-01 10:39:00,21.3,20.1,29.18,NE,41,6.0,23.0,95,0.00,,,0.00,Wunderground v.1.15,2013-02-01 15:39:00,
2013-02-01 10:49:00,22.2,21.0,29.18,NNE,17,8.0,23.0,95,0.00,,,0.00,Wunderground v.1.15,2013-02-01 15:49:00,
2013-02-01 10:54:00,22.2,20.7,29.18,ENE,60,8.0,23.0,94,0.00,,,0.00,Wunderground v.1.15,2013-02-01 15:54:00,
2013-02-01 10:59:00,21.9,20.4,29.19,NE,35,9.0,23.0,94,0.00,,,0.00,Wunderground v.1.15,2013-02-01 15:59:00,
2013-02-01 11:04:00,21.8,20.3,29.19,NNE,19,10.0,23.0,94,0.00,,,0.00,Wunderground v.1.15,2013-02-01 16:04:00,
2013-02-01 11:09:00,21.8,20.3,29.19,NE,36,10.0,23.0,94,0.00,,,0.00,Wunderground v.1.15,2013-02-01 16:09:00,
2013-02-01 11:19:00,22.1,20.6,29.19,NNE,24,11.0,23.0,94,0.00,,,0.00,Wunderground v.1.15,2013-02-01 16:19:00,
2013-02-01 11:24:00,22.3,20.8,29.19,NNE,22,10.0,23.0,94,0.00,,,0.00,Wunderground v.1.15,2013-02-01 16:24:00,
2013-02-01 11:29:00,22.5,21.0,29.19,NE,34,11.0,23.0,94,0.00,,,0.00,Wunderground v.1.15,2013-02-01 16:29:00,
2013-02-01 11:34:00,22.7,21.2,29.20,North,350,11.0,23.0,94,0.00,,,0.00,Wunderground v.1.15,2013-02-01 16:34:00,
2013-02-01 11:39:00,23.1,21.9,29.20,North,350,10.0,23.0,95,0.00,,,0.00,Wunderground v.1.15,2013-02-01 16:39:00,
2013-02-01 11:44:00,23.6,22.4,29.20,North,355,10.0,23.0,95,0.00,,,0.00,Wunderground v.1.15,2013-02-01 16:44:00,
2013-02-01 11:54:00,24.0,22.8,29.20,NNE,28,11.0,23.0,95,0.00,,,0.00,Wunderground v.1.15,2013-02-01 16:54:00,
2013-02-01 11:59:00,24.2,23.0,29.20,NE,38,9.0,23.0,95,0.00,,,0.00,Wunderground v.1.15,2013-02-01 16:59:00,
2013-02-01 12:04:00,24.5,23.3,29.20,NNE,19,10.0,23.0,95,0.00,,,0.00,Wunderground v.1.15,2013-02-01 17:04:00,
2013-02-01 12:09:00,24.7,23.5,29.20,North,360,11.0,11.0,95,0.00,,,0.00,Wunderground v.1.15,2013-02-01 17:09:00,
2013-02-01 12:14:00,24.8,23.6,29.20,North,355,10.0,23.0,95,0.00,,,0.00,Wunderground v.1.15,2013-02-01 17:14:00,
2013-02-01 12:24:00,24.9,23.7,29.20,NNE,19,10.0,23.0,95,0.00,,,0.00,Wunderground v.1.15,2013-02-01 17:24:00,
2013-02-01 12:29:00,24.9,23.7,29.20,North,10,10.0,23.0,95,0.00,,,0.00,Wunderground v.1.15,2013-02-01 17:29:00,
2013-02-01 12:34:00,24.8,23.3,29.20,NNE,27,11.0,23.0,94,0.00,,,0.00,Wunderground v.1.15,2013-02-01 17:34:00,
2013-02-01 12:39:00,24.5,23.0,29.20,NNE,15,11.0,23.0,94,0.00,,,0.00,Wunderground v.1.15,2013-02-01 17:39:00,
2013-02-01 12:44:00,24.1,22.4,29.21,NNE,22,12.0,23.0,93,0.00,,,0.00,Wunderground v.1.15,2013-02-01 17:44:00,
2013-02-01 12:49:00,23.6,21.9,29.21,NNE,32,13.0,13.0,93,0.00,,,0.00,Wunderground v.1.15,2013-02-01 17:49:00,
2013-02-01 12:59:00,22.6,20.9,29.21,NNE,22,13.0,13.0,93,0.00,,,0.00,Wunderground v.1.15,2013-02-01 17:59:00,
2013-02-01 13:04:00,22.2,20.5,29.22,North,5,11.0,23.0,93,0.00,,,0.00,Wunderground v.1.15,2013-02-01 18:04:00,
2013-02-01 13:09:00,21.9,19.9,29.22,NNE,15,10.0,10.0,92,0.00,,,0.00,Wunderground v.1.15,2013-02-01 18:09:00,
2013-02-01 13:14:00,21.8,20.1,29.22,North,355,11.0,11.0,93,0.00,,,0.00,Wunderground v.1.15,2013-02-01 18:14:00,
2013-02-01 13:19:00,21.7,20.0,29.22,NNE,20,11.0,23.0,93,0.00,,,0.00,Wunderground v.1.15,2013-02-01 18:19:00,
2013-02-01 13:24:00,21.6,19.9,29.22,NNE,23,10.0,23.0,93,0.00,,,0.00,Wunderground v.1.15,2013-02-01 18:24:00,
2013-02-01 13:29:00,21.5,19.8,29.22,NNE,25,10.0,10.0,93,0.00,,,0.00,Wunderground v.1.15,2013-02-01 18:29:00,
2013-02-01 13:34:00,21.3,19.6,29.22,NE,34,11.0,11.0,93,0.00,,,0.00,Wunderground v.1.15,2013-02-01 18:34:00,
2013-02-01 13:39:00,21.0,19.0,29.22,NNE,27,11.0,11.0,92,0.00,,,0.00,Wunderground v.1.15,2013-02-01 18:39:00,
2013-02-01 13:44:00,20.5,18.5,29.23,NNE,26,12.0,15.0,92,0.00,,,0.00,Wunderground v.1.15,2013-02-01 18:44:00,
2013-02-01 13:49:00,20.1,18.1,29.23,NNE,32,12.0,12.0,92,0.00,,,0.00,Wunderground v.1.15,2013-02-01 18:49:00,
2013-02-01 13:59:00,19.9,18.0,29.23,NE,40,12.0,12.0,92,0.00,,,0.00,Wunderground v.1.15,2013-02-01 18:59:00,
2013-02-01 14:04:00,19.8,17.9,29.23,NE,38,12.0,13.0,92,0.00,,,0.00,Wunderground v.1.15,2013-02-01 19:04:00,
2013-02-01 14:09:00,19.7,17.8,29.23,NNE,23,12.0,12.0,92,0.00,,,0.00,Wunderground v.1.15,2013-02-01 19:09:00,
2013-02-01 14:14:00,19.7,17.8,29.23,NNE,33,12.0,23.0,92,0.00,,,0.00,Wunderground v.1.15,2013-02-01 19:14:00,
2013-02-01 14:19:00,19.7,18.0,29.24,NNE,30,12.0,12.0,93,0.00,,,0.00,Wunderground v.1.15,2013-02-01 19:19:00,
2013-02-01 14:24:00,19.8,18.1,29.24,NNE,27,10.0,23.0,93,0.00,,,0.00,Wunderground v.1.15,2013-02-01 19:24:00,
2013-02-01 14:34:00,19.3,17.4,29.24,NNE,23,10.0,23.0,92,0.00,,,0.00,Wunderground v.1.15,2013-02-01 19:34:00,
2013-02-01 14:39:00,19.1,17.2,29.24,North,350,11.0,11.0,92,0.00,,,0.00,Wunderground v.1.15,2013-02-01 19:39:00,
2013-02-01 14:44:00,19.0,17.1,29.24,NNE,18,10.0,23.0,92,0.00,,,0.00,Wunderground v.1.15,2013-02-01 19:44:00,
2013-02-01 14:49:00,19.1,17.2,29.24,NNE,30,10.0,23.0,92,0.00,,,0.00,Wunderground v.1.15,2013-02-01 19:49:00,
2013-02-01 14:54:00,19.0,17.1,29.24,NNE,20,11.0,23.0,92,0.00,,,0.00,Wunderground v.1.15,2013-02-01 19:54:00,
2013-02-01 15:04:00,19.4,17.5,29.25,North,355,9.0,23.0,92,0.00,,,0.00,Wunderground v.1.15,2013-02-01 20:04:00,
2013-02-01 15:09:00,19.6,17.7,29.25,NNE,22,10.0,23.0,92,0.00,,,0.00,Wunderground v.1.15,2013-02-01 20:09:00,
2013-02-01 15:14:00,19.5,17.6,29.25,NE,36,11.0,23.0,92,0.00,,,0.00,Wunderground v.1.15,2013-02-01 20:14:00,
2013-02-01 15:19:00,19.2,17.0,29.25,NNW,338,12.0,12.0,91,0.00,,,0.00,Wunderground v.1.15,2013-02-01 20:19:00,
2013-02-01 15:24:00,19.2,17.0,29.26,NNE,15,13.0,13.0,91,0.00,,,0.00,Wunderground v.1.15,2013-02-01 20:24:00,
2013-02-01 15:29:00,19.3,17.1,29.26,NNE,32,12.0,23.0,91,0.00,,,0.00,Wunderground v.1.15,2013-02-01 20:29:00,
2013-02-01 15:39:00,19.3,16.8,29.26,NNE,30,13.0,23.0,90,0.00,,,0.00,Wunderground v.1.15,2013-02-01 20:39:00,
2013-02-01 15:44:00,19.3,16.8,29.27,North,355,14.0,23.0,90,0.00,,,0.00,Wunderground v.1.15,2013-02-01 20:44:00,
2013-02-01 15:49:00,19.1,16.7,29.27,North,11,13.0,13.0,90,0.00,,,0.00,Wunderground v.1.15,2013-02-01 20:49:00,
2013-02-01 15:54:00,19.1,16.4,29.27,NNE,16,10.0,23.0,89,0.00,,,0.00,Wunderground v.1.15,2013-02-01 20:54:00,
2013-02-01 15:59:00,19.3,16.6,29.27,NNE,24,9.0,23.0,89,0.00,,,0.00,Wunderground v.1.15,2013-02-01 20:59:00,
2013-02-01 16:09:00,19.7,17.0,29.28,North,5,9.0,9.0,89,0.00,,,0.00,Wunderground v.1.15,2013-02-01 21:09:00,
2013-02-01 16:14:00,19.8,17.3,29.27,NNE,27,9.0,23.0,90,0.00,,,0.00,Wunderground v.1.15,2013-02-01 21:14:00,
2013-02-01 16:19:00,19.9,17.2,29.28,North,5,9.0,9.0,89,0.00,,,0.00,Wunderground v.1.15,2013-02-01 21:19:00,
2013-02-01 16:24:00,19.7,16.7,29.28,NNE,24,10.0,13.0,88,0.00,,,0.00,Wunderground v.1.15,2013-02-01 21:24:00,
2013-02-01 16:29:00,19.4,16.4,29.28,North,355,11.0,23.0,88,0.00,,,0.00,Wunderground v.1.15,2013-02-01 21:29:00,
2013-02-01 16:34:00,19.3,16.1,29.29,NE,46,10.0,23.0,87,0.00,,,0.00,Wunderground v.1.15,2013-02-01 21:34:00,
2013-02-01 16:44:00,18.9,15.4,29.29,NNE,22,12.0,12.0,86,0.00,,,0.00,Wunderground v.1.15,2013-02-01 21:44:00,
2013-02-01 16:49:00,18.7,14.9,29.29,NNE,28,12.0,12.0,85,0.00,,,0.00,Wunderground v.1.15,2013-02-01 21:49:00,
2013-02-01 16:54:00,18.7,15.2,29.29,NNE,28,11.0,23.0,86,0.00,,,0.00,Wunderground v.1.15,2013-02-01 21:54:00,
2013-02-01 16:59:00,18.7,15.2,29.29,NNE,28,11.0,11.0,86,0.00,,,0.00,Wunderground v.1.15,2013-02-01 21:59:00,
2013-02-01 17:04:00,18.7,15.2,29.30,NNE,24,11.0,23.0,86,0.00,,,0.00,Wunderground v.1.15,2013-02-01 22:04:00,
2013-02-01 17:09:00,18.6,15.1,29.30,NNE,30,10.0,23.0,86,0.00,,,0.00,Wunderground v.1.15,2013-02-01 22:09:00,
2013-02-01 17:14:00,18.6,15.1,29.30,NNE,33,9.0,23.0,86,0.00,,,0.00,Wunderground v.1.15,2013-02-01 22:14:00,
2013-02-01 17:19:00,18.7,15.2,29.30,NNE,30,10.0,23.0,86,0.00,,,0.00,Wunderground v.1.15,2013-02-01 22:19:00,
2013-02-01 17:24:00,18.8,15.0,29.31,North,11,11.0,23.0,85,0.00,,,0.00,Wunderground v.1.15,2013-02-01 22:24:00,
2013-02-01 17:29:00,18.8,15.0,29.31,NNE,31,10.0,23.0,85,0.00,,,0.00,Wunderground v.1.15,2013-02-01 22:29:00,
2013-02-01 17:34:00,18.9,15.1,29.31,NNE,22,10.0,23.0,85,0.00,,,0.00,Wunderground v.1.15,2013-02-01 22:34:00,
2013-02-01 17:44:00,19.1,15.3,29.32,NNE,15,8.0,23.0,85,0.00,,,0.00,Wunderground v.1.15,2013-02-01 22:44:00,
2013-02-01 17:49:00,19.1,15.6,29.32,NNW,348,9.0,23.0,86,0.00,,,0.00,Wunderground v.1.15,2013-02-01 22:49:00,
2013-02-01 17:54:00,19.2,15.7,29.32,NNW,337,8.0,23.0,86,0.00,,,0.00,Wunderground v.1.15,2013-02-01 22:54:00,
2013-02-01 17:59:00,19.2,15.7,29.33,North,351,7.0,23.0,86,0.00,,,0.00,Wunderground v.1.15,2013-02-01 22:59:00,
2013-02-01 18:04:00,19.2,15.7,29.33,North,355,7.0,23.0,86,0.00,,,0.00,Wunderground v.1.15,2013-02-01 23:04:00,
2013-02-01 18:09:00,19.3,16.1,29.33,NNW,327,5.0,23.0,87,0.00,,,0.00,Wunderground v.1.15,2013-02-01 23:09:00,
2013-02-01 18:19:00,19.4,16.4,29.34,NNW,346,7.0,23.0,88,0.00,,,0.00,Wunderground v.1.15,2013-02-01 23:19:00,
2013-02-01 18:24:00,19.4,16.4,29.34,NNW,344,8.0,23.0,88,0.00,,,0.00,Wunderground v.1.15,2013-02-01 23:24:00,
2013-02-01 18:29:00,19.4,16.7,29.34,North,9,8.0,23.0,89,0.00,,,0.00,Wunderground v.1.15,2013-02-01 23:29:00,
2013-02-01 18:34:00,19.3,16.6,29.34,North,360,8.0,23.0,89,0.00,,,0.00,Wunderground v.1.15,2013-02-01 23:34:00,
2013-02-01 18:39:00,19.3,16.6,29.34,NW,314,7.0,23.0,89,0.00,,,0.00,Wunderground v.1.15,2013-02-01 23:39:00,
2013-02-01 18:49:00,19.2,16.7,29.34,NW,309,5.0,23.0,90,0.00,,,0.00,Wunderground v.1.15,2013-02-01 23:49:00,
2013-02-01 18:54:00,19.2,16.7,29.35,NW,306,4.0,23.0,90,0.00,,,0.00,Wunderground v.1.15,2013-02-01 23:54:00,
2013-02-01 18:59:00,19.3,16.8,29.35,NW,312,4.0,4.0,90,0.00,,,0.00,Wunderground v.1.15,2013-02-01 23:59:00,
2013-02-01 19:04:00,19.3,16.8,29.35,NW,309,3.0,23.0,90,0.00,,,0.00,Wunderground v.1.15,2013-02-02 00:04:00,
2013-02-01 19:09:00,19.3,17.1,29.35,NW,311,4.0,23.0,91,0.00,,,0.00,Wunderground v.1.15,2013-02-02 00:09:00,
2013-02-01 19:14:00,19.3,16.8,29.35,NW,305,5.0,23.0,90,0.00,,,0.00,Wunderground v.1.15,2013-02-02 00:14:00,
2013-02-01 19:24:00,19.1,16.9,29.35,NNW,336,6.0,23.0,91,0.00,,,0.00,Wunderground v.1.15,2013-02-02 00:24:00,
2013-02-01 19:29:00,19.0,16.8,29.36,NNW,344,7.0,23.0,91,0.00,,,0.00,Wunderground v.1.15,2013-02-02 00:29:00,
2013-02-01 19:34:00,18.9,16.7,29.36,NW,312,8.0,23.0,91,0.00,,,0.00,Wunderground v.1.15,2013-02-02 00:34:00,
2013-02-01 19:39:00,18.9,16.7,29.36,North,5,8.0,23.0,91,0.00,,,0.00,Wunderground v.1.15,2013-02-02 00:39:00,
2013-02-01 19:44:00,18.9,16.7,29.36,North,11,9.0,23.0,91,0.00,,,0.00,Wunderground v.1.15,2013-02-02 00:44:00,
2013-02-01 19:54:00,18.8,16.6,29.36,North,355,10.0,10.0,91,0.00,,,0.00,Wunderground v.1.15,2013-02-02 00:54:00,
2013-02-01 19:59:00,18.7,16.5,29.36,NNW,344,9.0,9.0,91,0.00,,,0.00,Wunderground v.1.15,2013-02-02 00:59:00,
2013-02-01 20:04:00,18.6,16.4,29.36,North,360,8.0,10.0,91,0.00,,,0.00,Wunderground v.1.15,2013-02-02 01:04:00,
2013-02-01 20:09:00,18.6,16.4,29.36,NNW,344,8.0,23.0,91,0.00,,,0.00,Wunderground v.1.15,2013-02-02 01:09:00,
2013-02-01 20:14:00,18.6,16.4,29.36,NW,317,7.0,23.0,91,0.00,,,0.00,Wunderground v.1.15,2013-02-02 01:14:00,
2013-02-01 20:19:00,18.5,16.6,29.36,WNW,294,7.0,23.0,92,0.00,,,0.00,Wunderground v.1.15,2013-02-02 01:19:00,
2013-02-01 20:29:00,18.5,18.5,29.37,WNW,290,9.0,9.0,100,0.00,,,0.00,Wunderground v.1.15,2013-02-02 01:29:00,
2013-02-01 20:34:00,18.5,16.6,29.37,NNW,341,9.0,11.0,92,0.00,,,0.00,Wunderground v.1.15,2013-02-02 01:34:00,
2013-02-01 20:39:00,18.5,18.5,29.37,NNW,336,9.0,23.0,100,0.00,,,0.00,Wunderground v.1.15,2013-02-02 01:39:00,
2013-02-01 20:44:00,18.4,16.5,29.37,North,349,8.0,23.0,92,0.00,,,0.00,Wunderground v.1.15,2013-02-02 01:44:00,
2013-02-01 20:49:00,18.2,16.3,29.37,NNW,340,7.0,23.0,92,0.00,,,0.00,Wunderground v.1.15,2013-02-02 01:49:00,
2013-02-01 20:54:00,18.1,16.2,29.37,WNW,294,7.0,23.0,92,0.00,,,0.00,Wunderground v.1.15,2013-02-02 01:54:00,
2013-02-01 20:59:00,18.0,15.8,29.38,NNW,344,7.0,23.0,91,0.00,,,0.00,Wunderground v.1.15,2013-02-02 01:59:00,
2013-02-01 21:04:00,17.9,15.7,29.38,North,350,7.0,23.0,91,0.00,,,0.00,Wunderground v.1.15,2013-02-02 02:04:00,
2013-02-01 21:09:00,17.8,15.6,29.38,NNW,333,8.0,8.0,91,0.00,,,0.00,Wunderground v.1.15,2013-02-02 02:09:00,
2013-02-01 21:14:00,17.9,15.7,29.38,NNW,333,9.0,10.0,91,0.00,,,0.00,Wunderground v.1.15,2013-02-02 02:14:00,
2013-02-01 21:19:00,17.9,15.7,29.38,NW,315,9.0,9.0,91,0.00,,,0.00,Wunderground v.1.15,2013-02-02 02:19:00,
2013-02-01 21:24:00,17.9,15.7,29.38,North,350,8.0,23.0,91,0.00,,,0.00,Wunderground v.1.15,2013-02-02 02:24:00,
2013-02-01 21:34:00,17.9,15.7,29.38,NNW,332,7.0,23.0,91,0.00,,,0.00,Wunderground v.1.15,2013-02-02 02:34:00,
2013-02-01 21:39:00,17.8,15.6,29.38,NW,316,7.0,7.0,91,0.00,,,0.00,Wunderground v.1.15,2013-02-02 02:39:00,
2013-02-01 21:44:00,17.7,15.5,29.39,North,5,8.0,8.0,91,0.00,,,0.00,Wunderground v.1.15,2013-02-02 02:44:00,
2013-02-01 21:49:00,17.7,15.3,29.39,WSW,257,8.0,8.0,90,0.00,,,0.00,Wunderground v.1.15,2013-02-02 02:49:00,
2013-02-01 21:54:00,17.7,15.3,29.38,NW,317,8.0,23.0,90,0.00,,,0.00,Wunderground v.1.15,2013-02-02 02:54:00,
2013-02-01 21:59:00,17.8,15.1,29.39,North,355,8.0,23.0,89,0.00,,,0.00,Wunderground v.1.15,2013-02-02 02:59:00,
2013-02-01 22:04:00,17.8,15.1,29.39,NW,314,9.0,23.0,89,0.00,,,0.00,Wunderground v.1.15,2013-02-02 03:04:00,
2013-02-01 22:09:00,17.7,14.8,29.39,NNW,329,8.0,23.0,88,0.00,,,0.00,Wunderground v.1.15,2013-02-02 03:09:00,
2013-02-01 22:14:00,17.6,14.7,29.39,NNW,331,7.0,23.0,88,0.00,,,0.00,Wunderground v.1.15,2013-02-02 03:14:00,
2013-02-01 22:19:00,17.5,14.3,29.39,NW,308,7.0,7.0,87,0.00,,,0.00,Wunderground v.1.15,2013-02-02 03:19:00,
2013-02-01 22:29:00,17.2,13.7,29.39,NW,311,5.0,5.0,86,0.00,,,0.00,Wunderground v.1.15,2013-02-02 03:29:00,
2013-02-01 22:34:00,17.2,13.7,29.39,NNW,331,6.0,6.0,86,0.00,,,0.00,Wunderground v.1.15,2013-02-02 03:34:00,
2013-02-01 22:39:00,17.1,13.4,29.39,North,355,5.0,23.0,85,0.00,,,0.00,Wunderground v.1.15,2013-02-02 03:39:00,
2013-02-01 22:44:00,17.1,13.4,29.38,WNW,302,6.0,23.0,85,0.00,,,0.00,Wunderground v.1.15,2013-02-02 03:44:00,
2013-02-01 22:49:00,17.0,13.3,29.39,NNW,338,6.0,23.0,85,0.00,,,0.00,Wunderground v.1.15,2013-02-02 03:49:00,
2013-02-01 22:54:00,16.9,12.9,29.39,NW,323,6.0,23.0,84,0.00,,,0.00,Wunderground v.1.15,2013-02-02 03:54:00,
2013-02-01 22:59:00,16.7,12.7,29.39,NNW,343,8.0,8.0,84,0.00,,,0.00,Wunderground v.1.15,2013-02-02 03:59:00,
2013-02-01 23:09:00,16.3,12.0,29.39,North,360,7.0,23.0,83,0.00,,,0.00,Wunderground v.1.15,2013-02-02 04:09:00,
2013-02-01 23:14:00,16.2,11.9,29.39,NNW,346,7.0,23.0,83,0.00,,,0.00,Wunderground v.1.15,2013-02-02 04:14:00,
2013-02-01 23:19:00,16.1,11.8,29.39,North,351,7.0,23.0,83,0.00,,,0.00,Wunderground v.1.15,2013-02-02 04:19:00,
2013-02-01 23:24:00,16.1,11.8,29.39,North,360,7.0,23.0,83,0.00,,,0.00,Wunderground v.1.15,2013-02-02 04:24:00,
2013-02-01 23:29:00,16.2,11.9,29.39,North,11,7.0,23.0,83,0.00,,,0.00,Wunderground v.1.15,2013-02-02 04:29:00,
2013-02-01 23:39:00,16.4,12.1,29.39,North,360,7.0,7.0,83,0.00,,,0.00,Wunderground v.1.15,2013-02-02 04:39:00,
2013-02-01 23:44:00,16.4,12.1,29.39,North,9,7.0,23.0,83,0.00,,,0.00,Wunderground v.1.15,2013-02-02 04:44:00,
2013-02-01 23:49:00,16.3,11.8,29.38,North,351,6.0,6.0,82,0.00,,,0.00,Wunderground v.1.15,2013-02-02 04:49:00,
2013-02-01 23:54:00,16.3,11.8,29.38,NNE,19,7.0,11.0,82,0.00,,,0.00,Wunderground v.1.15,2013-02-02 04:54:00,